Time,TemperatureF,DewpointF,PressureIn,WindDirection,WindDirectionDegrees,WindSpeedMPH,WindSpeedGustMPH,Humidity,HourlyPrecipIn,Conditions,Clouds,dailyrainin,SoftwareType,DateUTC
2013-06-23 00:01:00,71.5,66.1,30.09,South,176,0.0,0.0,83,0.00,,---,0.00,VWS V13.01,2013-06-23 04:01:00,
2013-06-23 00:02:00,71.5,66.1,30.09,South,176,0.0,0.0,83,0.00,,---,0.00,VWS V13.01,2013-06-23 04:02:00,
2013-06-23 00:07:00,71.4,66.3,30.10,South,176,0.0,2.0,84,0.00,,---,0.00,VWS V13.01,2013-06-23 04:07:00,
2013-06-23 00:12:00,71.5,66.4,30.10,South,176,1.0,2.0,84,0.00,,---,0.00,VWS V13.01,2013-06-23 04:12:00,
2013-06-23 00:17:00,71.4,66.0,30.10,South,176,0.0,2.0,83,0.00,,---,0.00,VWS V13.01,2013-06-23 04:17:00,
2013-06-23 00:22:00,71.4,66.0,30.10,South,176,0.0,2.0,83,0.00,,---,0.00,VWS V13.01,2013-06-23 04:22:00,
2013-06-23 00:27:00,71.3,65.9,30.09,South,176,0.0,2.0,83,0.00,,---,0.00,VWS V13.01,2013-06-23 04:27:00,
2013-06-23 00:32:00,71.3,65.9,30.09,South,176,0.0,0.0,83,0.00,,---,0.00,VWS V13.01,2013-06-23 04:32:00,
2013-06-23 00:37:00,71.2,65.8,30.09,South,176,0.0,2.0,83,0.00,,---,0.00,VWS V13.01,2013-06-23 04:37:00,
2013-06-23 00:42:00,71.1,65.7,30.09,South,176,0.0,2.0,83,0.00,,---,0.00,VWS V13.01,2013-06-23 04:42:00,
2013-06-23 00:47:00,71.0,65.9,30.09,South,176,0.0,2.0,84,0.00,,---,0.00,VWS V13.01,2013-06-23 04:47:00,
2013-06-23 00:52:00,70.8,65.7,30.09,South,176,0.0,2.0,84,0.00,,---,0.00,VWS V13.01,2013-06-23 04:52:00,
2013-06-23 00:57:00,70.6,65.5,30.09,South,176,0.0,2.0,84,0.00,,---,0.00,VWS V13.01,2013-06-23 04:57:00,
2013-06-23 01:01:00,70.4,65.7,30.09,South,176,0.0,0.0,85,0.00,,---,0.00,VWS V13.01,2013-06-23 05:01:00,
2013-06-23 01:06:00,70.2,65.5,30.09,South,176,0.0,0.0,85,0.00,,---,0.00,VWS V13.01,2013-06-23 05:06:00,
2013-06-23 01:11:00,70.1,65.4,30.08,South,176,0.0,0.0,85,0.00,,---,0.00,VWS V13.01,2013-06-23 05:11:00,
2013-06-23 01:16:00,69.9,65.5,30.08,South,176,0.0,0.0,86,0.00,,---,0.00,VWS V13.01,2013-06-23 05:16:00,
2013-06-23 01:21:00,69.8,65.4,30.08,South,176,0.0,0.0,86,0.00,,---,0.00,VWS V13.01,2013-06-23 05:21:00,
2013-06-23 01:26:00,69.6,65.2,30.08,South,176,0.0,0.0,86,0.00,,---,0.00,VWS V13.01,2013-06-23 05:26:00,
2013-06-23 01:32:00,69.5,65.1,30.08,South,176,0.0,0.0,86,0.00,,---,0.00,VWS V13.01,2013-06-23 05:32:00,
2013-06-23 01:37:00,69.4,65.4,30.08,South,176,0.0,0.0,87,0.00,,---,0.00,VWS V13.01,2013-06-23 05:37:00,
2013-06-23 01:42:00,69.2,65.2,30.08,South,176,0.0,1.0,87,0.00,,---,0.00,VWS V13.01,2013-06-23 05:42:00,
2013-06-23 01:46:00,69.1,65.1,30.08,South,176,0.0,1.0,87,0.00,,---,0.00,VWS V13.01,2013-06-23 05:46:00,
2013-06-23 01:51:00,69.0,65.0,30.08,South,176,0.0,1.0,87,0.00,,---,0.00,VWS V13.01,2013-06-23 05:51:00,
2013-06-23 01:56:00,68.9,64.9,30.08,South,176,0.0,1.0,87,0.00,,---,0.00,VWS V13.01,2013-06-23 05:56:00,
2013-06-23 02:01:00,68.8,65.1,30.08,South,176,0.0,1.0,88,0.00,,---,0.00,VWS V13.01,2013-06-23 06:01:00,
2013-06-23 02:06:00,68.7,65.0,30.08,South,176,0.0,1.0,88,0.00,,---,0.00,VWS V13.01,2013-06-23 06:06:00,
2013-06-23 02:11:00,68.7,65.0,30.08,South,176,0.0,1.0,88,0.00,,---,0.00,VWS V13.01,2013-06-23 06:11:00,
2013-06-23 02:16:00,68.7,65.0,30.08,South,176,1.0,1.0,88,0.00,,---,0.00,VWS V13.01,2013-06-23 06:16:00,
2013-06-23 02:21:00,68.7,65.0,30.08,South,176,0.0,1.0,88,0.00,,---,0.00,VWS V13.01,2013-06-23 06:21:00,
2013-06-23 02:26:00,68.7,65.0,30.08,South,176,0.0,1.0,88,0.00,,---,0.00,VWS V13.01,2013-06-23 06:26:00,
2013-06-23 02:31:00,68.6,64.9,30.08,South,176,0.0,0.0,88,0.00,,---,0.00,VWS V13.01,2013-06-23 06:31:00,
2013-06-23 02:36:00,68.5,65.1,30.08,South,176,0.0,1.0,89,0.00,,---,0.00,VWS V13.01,2013-06-23 06:36:00,
2013-06-23 02:41:00,68.4,65.0,30.08,South,176,0.0,1.0,89,0.00,,---,0.00,VWS V13.01,2013-06-23 06:41:00,
2013-06-23 02:46:00,68.3,64.9,30.08,South,176,0.0,1.0,89,0.00,,---,0.00,VWS V13.01,2013-06-23 06:46:00,
2013-06-23 02:51:00,68.2,64.8,30.08,South,176,0.0,1.0,89,0.00,,---,0.00,VWS V13.01,2013-06-23 06:51:00,
2013-06-23 02:56:00,68.1,64.7,30.08,South,176,0.0,1.0,89,0.00,,---,0.00,VWS V13.01,2013-06-23 06:56:00,
2013-06-23 03:01:00,68.0,64.6,30.07,South,176,0.0,0.0,89,0.00,,---,0.00,VWS V13.01,2013-06-23 07:01:00,
2013-06-23 03:06:00,67.9,64.5,30.07,South,176,0.0,1.0,89,0.00,,---,0.00,VWS V13.01,2013-06-23 07:06:00,
2013-06-23 03:11:00,67.9,64.5,30.07,South,176,0.0,1.0,89,0.00,,---,0.00,VWS V13.01,2013-06-23 07:11:00,
2013-06-23 03:16:00,67.8,64.8,30.07,South,176,0.0,1.0,90,0.00,,---,0.00,VWS V13.01,2013-06-23 07:16:00,
2013-06-23 03:21:00,67.7,64.7,30.08,South,176,0.0,1.0,90,0.00,,---,0.00,VWS V13.01,2013-06-23 07:21:00,
2013-06-23 03:26:00,67.6,64.6,30.08,South,176,0.0,1.0,90,0.00,,---,0.00,VWS V13.01,2013-06-23 07:26:00,
2013-06-23 03:31:00,67.5,64.5,30.08,South,176,0.0,0.0,90,0.00,,---,0.00,VWS V13.01,2013-06-23 07:31:00,
2013-06-23 03:36:00,67.4,64.4,30.07,South,176,0.0,0.0,90,0.00,,---,0.00,VWS V13.01,2013-06-23 07:36:00,
2013-06-23 03:41:00,67.2,64.2,30.07,South,176,0.0,0.0,90,0.00,,---,0.00,VWS V13.01,2013-06-23 07:41:00,
2013-06-23 03:46:00,67.1,64.1,30.07,South,176,0.0,0.0,90,0.00,,---,0.00,VWS V13.01,2013-06-23 07:46:00,
2013-06-23 03:51:00,67.0,64.0,30.07,South,176,0.0,1.0,90,0.00,,---,0.00,VWS V13.01,2013-06-23 07:51:00,
2013-06-23 03:56:00,66.9,64.2,30.07,South,176,0.0,1.0,91,0.00,,---,0.00,VWS V13.01,2013-06-23 07:56:00,
2013-06-23 04:01:00,66.9,64.2,30.07,South,176,0.0,0.0,91,0.00,,---,0.00,VWS V13.01,2013-06-23 08:01:00,
2013-06-23 04:06:00,66.7,64.0,30.08,South,176,0.0,0.0,91,0.00,,---,0.00,VWS V13.01,2013-06-23 08:06:00,
2013-06-23 04:11:00,66.7,64.3,30.08,South,176,0.0,0.0,92,0.00,,---,0.00,VWS V13.01,2013-06-23 08:11:00,
2013-06-23 04:16:00,66.6,64.2,30.08,South,176,0.0,0.0,92,0.00,,---,0.00,VWS V13.01,2013-06-23 08:16:00,
2013-06-23 04:21:00,66.5,64.1,30.08,South,176,0.0,0.0,92,0.00,,---,0.00,VWS V13.01,2013-06-23 08:21:00,
2013-06-23 04:26:00,66.4,64.0,30.08,South,176,0.0,0.0,92,0.00,,---,0.00,VWS V13.01,2013-06-23 08:26:00,
2013-06-23 04:31:00,66.3,63.9,30.08,South,176,0.0,0.0,92,0.00,,---,0.00,VWS V13.01,2013-06-23 08:31:00,
2013-06-23 04:36:00,66.2,63.8,30.08,South,176,0.0,0.0,92,0.00,,---,0.00,VWS V13.01,2013-06-23 08:36:00,
2013-06-23 04:41:00,66.1,63.7,30.08,South,176,0.0,0.0,92,0.00,,---,0.00,VWS V13.01,2013-06-23 08:41:00,
2013-06-23 04:46:00,66.0,63.6,30.08,South,176,0.0,0.0,92,0.00,,---,0.00,VWS V13.01,2013-06-23 08:46:00,
2013-06-23 04:51:00,66.0,63.9,30.08,South,176,0.0,0.0,93,0.00,,---,0.00,VWS V13.01,2013-06-23 08:51:00,
2013-06-23 04:56:00,65.9,63.5,30.08,South,176,0.0,0.0,92,0.00,,---,0.00,VWS V13.01,2013-06-23 08:56:00,
2013-06-23 05:01:00,65.8,63.4,30.08,South,176,0.0,1.0,92,0.00,,---,0.00,VWS V13.01,2013-06-23 09:01:00,
2013-06-23 05:06:00,65.7,63.3,30.08,South,176,0.0,1.0,92,0.00,,---,0.00,VWS V13.01,2013-06-23 09:06:00,
2013-06-23 05:11:00,65.6,63.5,30.08,South,176,0.0,1.0,93,0.00,,---,0.00,VWS V13.01,2013-06-23 09:11:00,
2013-06-23 05:16:00,65.5,63.1,30.08,South,176,0.0,1.0,92,0.00,,---,0.00,VWS V13.01,2013-06-23 09:16:00,
2013-06-23 05:21:00,65.3,63.2,30.08,South,176,0.0,1.0,93,0.00,,---,0.00,VWS V13.01,2013-06-23 09:21:00,
2013-06-23 05:26:00,65.2,63.1,30.08,South,176,0.0,1.0,93,0.00,,---,0.00,VWS V13.01,2013-06-23 09:26:00,
2013-06-23 05:31:00,65.2,63.1,30.09,South,176,0.0,0.0,93,0.00,,---,0.00,VWS V13.01,2013-06-23 09:31:00,
2013-06-23 05:36:00,65.1,63.0,30.09,South,176,0.0,1.0,93,0.00,,---,0.00,VWS V13.01,2013-06-23 09:36:00,
2013-06-23 05:41:00,65.0,62.9,30.09,South,176,0.0,1.0,93,0.00,,---,0.00,VWS V13.01,2013-06-23 09:41:00,
2013-06-23 05:46:00,65.0,62.9,30.09,South,176,0.0,1.0,93,0.00,,---,0.00,VWS V13.01,2013-06-23 09:46:00,
2013-06-23 05:51:00,64.9,62.8,30.09,South,176,0.0,1.0,93,0.00,,---,0.00,VWS V13.01,2013-06-23 09:51:00,
2013-06-23 05:56:00,64.9,62.8,30.10,South,176,0.0,1.0,93,0.00,,---,0.00,VWS V13.01,2013-06-23 09:56:00,
2013-06-23 06:01:00,64.9,62.8,30.10,South,176,0.0,0.0,93,0.00,,---,0.00,VWS V13.01,2013-06-23 10:01:00,
2013-06-23 06:06:00,64.8,62.7,30.10,South,176,0.0,0.0,93,0.00,,---,0.00,VWS V13.01,2013-06-23 10:06:00,
2013-06-23 06:11:00,64.8,63.0,30.11,South,176,0.0,1.0,94,0.00,,---,0.00,VWS V13.01,2013-06-23 10:11:00,
2013-06-23 06:16:00,64.9,63.1,30.11,South,176,1.0,1.0,94,0.00,,---,0.00,VWS V13.01,2013-06-23 10:16:00,
2013-06-23 06:21:00,65.0,63.2,30.11,South,176,0.0,2.0,94,0.00,,---,0.00,VWS V13.01,2013-06-23 10:21:00,
2013-06-23 06:26:00,65.1,63.0,30.11,South,176,0.0,2.0,93,0.00,,---,0.00,VWS V13.01,2013-06-23 10:26:00,
2013-06-23 06:31:00,65.2,63.1,30.11,South,176,0.0,0.0,93,0.00,,---,0.00,VWS V13.01,2013-06-23 10:31:00,
2013-06-23 06:36:00,65.2,63.1,30.11,South,176,0.0,0.0,93,0.00,,---,0.00,VWS V13.01,2013-06-23 10:36:00,
2013-06-23 06:41:00,65.2,63.1,30.11,South,176,0.0,1.0,93,0.00,,---,0.00,VWS V13.01,2013-06-23 10:41:00,
2013-06-23 06:46:00,65.2,63.1,30.11,South,176,0.0,1.0,93,0.00,,---,0.00,VWS V13.01,2013-06-23 10:46:00,
2013-06-23 06:51:00,65.3,63.2,30.11,South,176,0.0,1.0,93,0.00,,---,0.00,VWS V13.01,2013-06-23 10:51:00,
2013-06-23 06:56:00,65.4,63.6,30.11,South,176,0.0,1.0,94,0.00,,---,0.00,VWS V13.01,2013-06-23 10:56:00,
2013-06-23 07:01:00,65.7,63.9,30.11,South,176,0.0,0.0,94,0.00,,---,0.00,VWS V13.01,2013-06-23 11:01:00,
2013-06-23 07:06:00,66.1,64.0,30.11,South,176,0.0,0.0,93,0.00,,---,0.00,VWS V13.01,2013-06-23 11:06:00,
2013-06-23 07:11:00,66.6,64.8,30.12,South,176,0.0,0.0,94,0.00,,---,0.00,VWS V13.01,2013-06-23 11:11:00,
2013-06-23 07:16:00,67.1,65.0,30.12,South,176,0.0,0.0,93,0.00,,---,0.00,VWS V13.01,2013-06-23 11:16:00,
2013-06-23 07:21:00,67.5,65.1,30.12,South,176,0.0,0.0,92,0.00,,---,0.00,VWS V13.01,2013-06-23 11:21:00,
2013-06-23 07:26:00,67.9,65.2,30.12,South,176,0.0,0.0,91,0.00,,---,0.00,VWS V13.01,2013-06-23 11:26:00,
2013-06-23 07:31:00,68.3,65.3,30.12,South,176,0.0,0.0,90,0.00,,---,0.00,VWS V13.01,2013-06-23 11:31:00,
2013-06-23 07:36:00,68.7,65.3,30.12,South,176,0.0,1.0,89,0.00,,---,0.00,VWS V13.01,2013-06-23 11:36:00,
2013-06-23 07:41:00,69.0,65.3,30.12,South,176,0.0,1.0,88,0.00,,---,0.00,VWS V13.01,2013-06-23 11:41:00,
2013-06-23 07:46:00,69.3,64.9,30.12,South,176,0.0,1.0,86,0.00,,---,0.00,VWS V13.01,2013-06-23 11:46:00,
2013-06-23 07:51:00,69.7,65.7,30.12,South,176,0.0,1.0,87,0.00,,---,0.00,VWS V13.01,2013-06-23 11:51:00,
2013-06-23 07:56:00,70.1,66.1,30.12,South,176,0.0,1.0,87,0.00,,---,0.00,VWS V13.01,2013-06-23 11:56:00,
2013-06-23 08:01:00,70.5,65.8,30.12,South,176,0.0,1.0,85,0.00,,---,0.00,VWS V13.01,2013-06-23 12:01:00,
2013-06-23 08:06:00,71.0,66.3,30.12,South,176,0.0,1.0,85,0.00,,---,0.00,VWS V13.01,2013-06-23 12:06:00,
2013-06-23 08:11:00,71.7,66.3,30.12,South,176,0.0,2.0,83,0.00,,---,0.00,VWS V13.01,2013-06-23 12:11:00,
2013-06-23 08:16:00,72.3,66.8,30.12,South,183,2.0,3.0,83,0.00,,---,0.00,VWS V13.01,2013-06-23 12:16:00,
2013-06-23 08:21:00,73.1,66.9,30.12,South,176,2.0,3.0,81,0.00,,---,0.00,VWS V13.01,2013-06-23 12:21:00,
2013-06-23 08:26:00,73.9,67.0,30.12,SSW,207,1.0,3.0,79,0.00,,---,0.00,VWS V13.01,2013-06-23 12:26:00,
2013-06-23 08:31:00,74.4,67.1,30.12,SSW,203,0.0,2.0,78,0.00,,---,0.00,VWS V13.01,2013-06-23 12:31:00,
2013-06-23 08:36:00,75.0,66.6,30.12,SSW,203,1.0,2.0,75,0.00,,---,0.00,VWS V13.01,2013-06-23 12:36:00,
2013-06-23 08:41:00,75.7,67.2,30.12,SSW,203,1.0,2.0,75,0.00,,---,0.00,VWS V13.01,2013-06-23 12:41:00,
2013-06-23 08:46:00,76.6,67.7,30.12,WSW,238,1.0,3.0,74,0.00,,---,0.00,VWS V13.01,2013-06-23 12:46:00,
2013-06-23 08:51:00,77.1,67.4,30.12,WSW,238,2.0,3.0,72,0.00,,---,0.00,VWS V13.01,2013-06-23 12:51:00,
2013-06-23 08:56:00,77.5,68.2,30.12,WSW,238,2.0,3.0,73,0.00,,---,0.00,VWS V13.01,2013-06-23 12:56:00,
2013-06-23 09:01:00,78.0,68.2,30.12,WSW,247,2.0,4.0,72,0.00,,---,0.00,VWS V13.01,2013-06-23 13:01:00,
2013-06-23 09:06:00,78.4,68.2,30.12,SSW,192,2.0,4.0,71,0.00,,---,0.00,VWS V13.01,2013-06-23 13:06:00,
2013-06-23 09:11:00,78.9,68.3,30.12,SW,222,4.0,6.0,70,0.00,,---,0.00,VWS V13.01,2013-06-23 13:11:00,
2013-06-23 09:16:00,79.3,68.3,30.12,SSW,213,3.0,7.0,69,0.00,,---,0.00,VWS V13.01,2013-06-23 13:16:00,
2013-06-23 09:21:00,79.5,67.2,30.12,SSW,206,6.0,10.0,66,0.00,,---,0.00,VWS V13.01,2013-06-23 13:21:00,
2013-06-23 09:26:00,79.6,67.7,30.12,South,171,5.0,10.0,67,0.00,,---,0.00,VWS V13.01,2013-06-23 13:26:00,
2013-06-23 09:31:00,79.9,68.0,30.12,SSW,213,3.0,6.0,67,0.00,,---,0.00,VWS V13.01,2013-06-23 13:31:00,
2013-06-23 09:36:00,80.2,67.8,30.12,SW,222,5.0,8.0,66,0.00,,---,0.00,VWS V13.01,2013-06-23 13:36:00,
2013-06-23 09:41:00,80.3,67.9,30.12,WSW,238,6.0,9.0,66,0.00,,---,0.00,VWS V13.01,2013-06-23 13:41:00,
2013-06-23 09:46:00,80.4,68.0,30.12,WSW,238,4.0,9.0,66,0.00,,---,0.00,VWS V13.01,2013-06-23 13:46:00,
2013-06-23 09:51:00,80.7,68.7,30.11,SSW,208,5.0,9.0,67,0.00,,---,0.00,VWS V13.01,2013-06-23 13:51:00,
2013-06-23 09:56:00,81.1,68.7,30.11,SW,219,5.0,9.0,66,0.00,,---,0.00,VWS V13.01,2013-06-23 13:56:00,
2013-06-23 10:02:00,81.2,68.8,30.11,SW,221,6.0,7.0,66,0.00,,---,0.00,VWS V13.01,2013-06-23 14:02:00,
2013-06-23 10:07:00,81.4,70.3,30.11,SSW,202,5.0,7.0,69,0.00,,---,0.00,VWS V13.01,2013-06-23 14:07:00,
2013-06-23 10:12:00,81.7,69.2,30.11,SSW,209,5.0,7.0,66,0.00,,---,0.00,VWS V13.01,2013-06-23 14:12:00,
2013-06-23 10:17:00,82.0,69.1,30.11,SW,221,5.0,9.0,65,0.00,,---,0.00,VWS V13.01,2013-06-23 14:17:00,
2013-06-23 10:22:00,82.1,69.2,30.11,SW,229,2.0,9.0,65,0.00,,---,0.00,VWS V13.01,2013-06-23 14:22:00,
2013-06-23 10:27:00,82.5,70.0,30.11,WSW,244,4.0,9.0,66,0.00,,---,0.00,VWS V13.01,2013-06-23 14:27:00,
2013-06-23 10:32:00,82.9,69.5,30.11,SW,234,5.0,8.0,64,0.00,,---,0.00,VWS V13.01,2013-06-23 14:32:00,
2013-06-23 10:37:00,83.0,69.1,30.11,SW,216,5.0,8.0,63,0.00,,---,0.00,VWS V13.01,2013-06-23 14:37:00,
2013-06-23 10:42:00,83.2,70.2,30.11,SW,214,7.0,9.0,65,0.00,,---,0.00,VWS V13.01,2013-06-23 14:42:00,
2013-06-23 10:47:00,83.3,69.4,30.11,West,265,2.0,9.0,63,0.00,,---,0.00,VWS V13.01,2013-06-23 14:47:00,
2013-06-23 10:52:00,83.4,69.0,30.11,SSW,202,5.0,9.0,62,0.00,,---,0.00,VWS V13.01,2013-06-23 14:52:00,
2013-06-23 10:57:00,83.6,69.2,30.11,SSW,213,5.0,9.0,62,0.00,,---,0.00,VWS V13.01,2013-06-23 14:57:00,
2013-06-23 11:02:00,83.6,69.7,30.11,SW,218,7.0,10.0,63,0.00,,---,0.00,VWS V13.01,2013-06-23 15:02:00,
2013-06-23 11:07:00,83.6,69.7,30.11,SW,227,5.0,10.0,63,0.00,,---,0.00,VWS V13.01,2013-06-23 15:07:00,
2013-06-23 11:12:00,83.9,69.5,30.11,SSW,205,4.0,10.0,62,0.00,,---,0.00,VWS V13.01,2013-06-23 15:12:00,
2013-06-23 11:17:00,84.1,70.2,30.11,WSW,249,5.0,10.0,63,0.00,,---,0.00,VWS V13.01,2013-06-23 15:17:00,
2013-06-23 11:22:00,84.4,70.0,30.11,West,263,6.0,10.0,62,0.00,,---,0.00,VWS V13.01,2013-06-23 15:22:00,
2013-06-23 11:27:00,84.7,69.8,30.11,West,259,5.0,10.0,61,0.00,,---,0.00,VWS V13.01,2013-06-23 15:27:00,
2013-06-23 11:33:00,84.8,69.9,30.11,South,176,6.0,6.0,61,0.00,,---,0.00,VWS V13.01,2013-06-23 15:33:00,
2013-06-23 11:38:00,85.0,70.1,30.11,South,169,4.0,8.0,61,0.00,,---,0.00,VWS V13.01,2013-06-23 15:38:00,
2013-06-23 11:43:00,85.3,70.8,30.10,WSW,245,3.0,8.0,62,0.00,,---,0.00,VWS V13.01,2013-06-23 15:43:00,
2013-06-23 11:48:00,85.2,69.8,30.11,SW,222,3.0,9.0,60,0.00,,---,0.00,VWS V13.01,2013-06-23 15:48:00,
2013-06-23 11:53:00,85.3,69.8,30.10,SSW,211,5.0,9.0,60,0.00,,---,0.00,VWS V13.01,2013-06-23 15:53:00,
2013-06-23 11:58:00,85.1,69.2,30.10,SW,229,3.0,9.0,59,0.00,,---,0.00,VWS V13.01,2013-06-23 15:58:00,
2013-06-23 12:03:00,84.8,69.9,30.10,SSW,205,2.0,6.0,61,0.00,,---,0.00,VWS V13.01,2013-06-23 16:03:00,
2013-06-23 12:08:00,84.9,69.5,30.10,SSW,213,3.0,6.0,60,0.00,,---,0.00,VWS V13.01,2013-06-23 16:08:00,
2013-06-23 12:13:00,85.4,70.4,30.10,WSW,240,1.0,6.0,61,0.00,,---,0.00,VWS V13.01,2013-06-23 16:13:00,
2013-06-23 12:18:00,85.7,69.7,30.09,SW,219,6.0,9.0,59,0.00,,---,0.00,VWS V13.01,2013-06-23 16:18:00,
2013-06-23 12:23:00,85.6,72.0,30.09,WNW,292,2.0,9.0,64,0.00,,---,0.00,VWS V13.01,2013-06-23 16:23:00,
2013-06-23 12:28:00,85.5,69.1,30.09,West,265,3.0,9.0,58,0.00,,---,0.00,VWS V13.01,2013-06-23 16:28:00,
2013-06-23 12:33:00,85.2,69.3,30.09,WNW,296,0.0,4.0,59,0.00,,---,0.00,VWS V13.01,2013-06-23 16:33:00,
2013-06-23 12:38:00,85.3,68.9,30.08,SW,224,5.0,6.0,58,0.00,,---,0.00,VWS V13.01,2013-06-23 16:38:00,
2013-06-23 12:43:00,85.6,69.6,30.08,West,275,10.0,10.0,59,0.00,,---,0.00,VWS V13.01,2013-06-23 16:43:00,
2013-06-23 12:48:00,85.6,68.6,30.08,SW,232,3.0,10.0,57,0.00,,---,0.00,VWS V13.01,2013-06-23 16:48:00,
2013-06-23 12:53:00,85.8,68.3,30.08,WSW,246,2.0,10.0,56,0.00,,---,0.00,VWS V13.01,2013-06-23 16:53:00,
2013-06-23 12:57:00,86.0,69.0,30.08,SW,223,6.0,10.0,57,0.00,,---,0.00,VWS V13.01,2013-06-23 16:57:00,
2013-06-23 13:02:00,85.8,68.3,30.08,WSW,239,7.0,8.0,56,0.00,,---,0.00,VWS V13.01,2013-06-23 17:02:00,
2013-06-23 13:07:00,85.5,68.5,30.08,SW,223,2.0,8.0,57,0.00,,---,0.00,VWS V13.01,2013-06-23 17:07:00,
2013-06-23 13:12:00,85.8,69.8,30.07,SSW,210,7.0,10.0,59,0.00,,---,0.00,VWS V13.01,2013-06-23 17:12:00,
2013-06-23 13:17:00,86.3,69.8,30.07,SSE,157,4.0,10.0,58,0.00,,---,0.00,VWS V13.01,2013-06-23 17:17:00,
2013-06-23 13:22:00,86.1,68.6,30.07,SSW,213,5.0,10.0,56,0.00,,---,0.00,VWS V13.01,2013-06-23 17:22:00,
2013-06-23 13:27:00,86.3,69.3,30.07,West,263,4.0,10.0,57,0.00,,---,0.00,VWS V13.01,2013-06-23 17:27:00,
2013-06-23 13:32:00,86.8,70.8,30.07,WSW,252,2.0,7.0,59,0.00,,---,0.00,VWS V13.01,2013-06-23 17:32:00,
2013-06-23 13:37:00,87.0,69.4,30.07,SW,232,1.0,7.0,56,0.00,,---,0.00,VWS V13.01,2013-06-23 17:37:00,
2013-06-23 13:43:00,87.0,69.9,30.07,WNW,283,2.0,10.0,57,0.00,,---,0.00,VWS V13.01,2013-06-23 17:43:00,
2013-06-23 13:48:00,87.1,68.4,30.06,West,269,4.0,10.0,54,0.00,,---,0.00,VWS V13.01,2013-06-23 17:48:00,
2013-06-23 13:53:00,87.3,68.1,30.06,SSW,207,7.0,10.0,53,0.00,,---,0.00,VWS V13.01,2013-06-23 17:53:00,
2013-06-23 13:58:00,87.6,68.4,30.06,SW,223,3.0,10.0,53,0.00,,---,0.00,VWS V13.01,2013-06-23 17:58:00,
2013-06-23 14:03:00,87.7,68.5,30.06,SSW,213,7.0,10.0,53,0.00,,---,0.00,VWS V13.01,2013-06-23 18:03:00,
2013-06-23 14:08:00,88.1,68.3,30.06,SSW,202,3.0,12.0,52,0.00,,---,0.00,VWS V13.01,2013-06-23 18:08:00,
2013-06-23 14:13:00,88.1,68.3,30.06,West,279,8.0,13.0,52,0.00,,---,0.00,VWS V13.01,2013-06-23 18:13:00,
2013-06-23 14:18:00,88.1,68.8,30.06,SSW,207,4.0,13.0,53,0.00,,---,0.00,VWS V13.01,2013-06-23 18:18:00,
2013-06-23 14:23:00,88.2,67.2,30.06,SSW,207,4.0,13.0,50,0.00,,---,0.00,VWS V13.01,2013-06-23 18:23:00,
2013-06-23 14:28:00,88.5,64.5,30.06,SW,219,6.0,13.0,45,0.00,,---,0.00,VWS V13.01,2013-06-23 18:28:00,
2013-06-23 14:33:00,88.8,66.0,30.05,SW,227,5.0,9.0,47,0.00,,---,0.00,VWS V13.01,2013-06-23 18:33:00,
2013-06-23 14:38:00,88.7,66.5,30.05,SW,225,6.0,13.0,48,0.00,,---,0.00,VWS V13.01,2013-06-23 18:38:00,
2013-06-23 14:43:00,88.9,66.1,30.05,WSW,252,8.0,13.0,47,0.00,,---,0.00,VWS V13.01,2013-06-23 18:43:00,
2013-06-23 14:48:00,89.1,67.5,30.05,SSW,203,7.0,13.0,49,0.00,,---,0.00,VWS V13.01,2013-06-23 18:48:00,
2013-06-23 14:53:00,89.3,67.7,30.05,SSW,197,5.0,13.0,49,0.00,,---,0.00,VWS V13.01,2013-06-23 18:53:00,
2013-06-23 14:58:00,89.8,66.3,30.05,West,277,5.0,13.0,46,0.00,,---,0.00,VWS V13.01,2013-06-23 18:58:00,
2013-06-23 15:03:00,89.5,66.0,30.05,SSW,203,7.0,9.0,46,0.00,,---,0.00,VWS V13.01,2013-06-23 19:03:00,
2013-06-23 15:08:00,89.3,66.4,30.05,SW,218,3.0,9.0,47,0.00,,---,0.00,VWS V13.01,2013-06-23 19:08:00,
2013-06-23 15:13:00,89.3,66.4,30.04,West,277,8.0,9.0,47,0.00,,---,0.00,VWS V13.01,2013-06-23 19:13:00,
2013-06-23 15:18:00,88.9,66.1,30.04,SW,229,6.0,9.0,47,0.00,,---,0.00,VWS V13.01,2013-06-23 19:18:00,
2013-06-23 15:23:00,88.7,66.5,30.04,SW,220,11.0,11.0,48,0.00,,---,0.00,VWS V13.01,2013-06-23 19:23:00,
2013-06-23 15:28:00,88.1,66.0,30.04,South,184,4.0,11.0,48,0.00,,---,0.00,VWS V13.01,2013-06-23 19:28:00,
2013-06-23 15:33:00,87.7,66.8,30.04,SSW,213,3.0,7.0,50,0.00,,---,0.00,VWS V13.01,2013-06-23 19:33:00,
2013-06-23 15:38:00,87.5,66.6,30.04,SW,227,4.0,8.0,50,0.00,,---,0.00,VWS V13.01,2013-06-23 19:38:00,
2013-06-23 15:43:00,87.3,65.8,30.04,SW,223,3.0,8.0,49,0.00,,---,0.00,VWS V13.01,2013-06-23 19:43:00,
2013-06-23 15:48:00,87.3,67.0,30.04,WSW,252,1.0,8.0,51,0.00,,---,0.00,VWS V13.01,2013-06-23 19:48:00,
2013-06-23 15:53:00,87.2,65.7,30.03,SSW,211,5.0,8.0,49,0.00,,---,0.00,VWS V13.01,2013-06-23 19:53:00,
2013-06-23 15:58:00,87.1,66.8,30.03,West,263,4.0,8.0,51,0.00,,---,0.00,VWS V13.01,2013-06-23 19:58:00,
2013-06-23 16:03:00,86.9,66.0,30.03,SW,234,5.0,6.0,50,0.00,,---,0.00,VWS V13.01,2013-06-23 20:03:00,
2013-06-23 16:08:00,86.8,65.9,30.03,SW,229,9.0,10.0,50,0.00,,---,0.00,VWS V13.01,2013-06-23 20:08:00,
2013-06-23 16:13:00,86.8,66.5,30.03,WSW,238,3.0,11.0,51,0.00,,---,0.00,VWS V13.01,2013-06-23 20:13:00,
2013-06-23 16:18:00,87.5,67.7,30.03,SW,231,5.0,11.0,52,0.00,,---,0.00,VWS V13.01,2013-06-23 20:18:00,
2013-06-23 16:23:00,87.8,66.9,30.03,SSW,194,9.0,11.0,50,0.00,,---,0.00,VWS V13.01,2013-06-23 20:23:00,
2013-06-23 16:28:00,87.2,66.3,30.03,SW,219,5.0,12.0,50,0.00,,---,0.00,VWS V13.01,2013-06-23 20:28:00,
2013-06-23 16:33:00,86.8,65.9,30.03,SW,229,3.0,11.0,50,0.00,,---,0.00,VWS V13.01,2013-06-23 20:33:00,
2013-06-23 16:38:00,86.4,66.2,30.03,SW,229,5.0,11.0,51,0.00,,---,0.00,VWS V13.01,2013-06-23 20:38:00,
2013-06-23 16:43:00,86.6,68.0,30.03,SW,234,6.0,11.0,54,0.00,,---,0.00,VWS V13.01,2013-06-23 20:43:00,
2013-06-23 16:48:00,87.5,67.7,30.03,SSW,204,5.0,11.0,52,0.00,,---,0.00,VWS V13.01,2013-06-23 20:48:00,
2013-06-23 16:53:00,88.3,68.5,30.03,WNW,289,7.0,11.0,52,0.00,,---,0.00,VWS V13.01,2013-06-23 20:53:00,
2013-06-23 16:58:00,88.6,68.2,30.03,WSW,243,4.0,11.0,51,0.00,,---,0.00,VWS V13.01,2013-06-23 20:58:00,
2013-06-23 17:03:00,88.6,67.0,30.03,SW,217,6.0,13.0,49,0.00,,---,0.00,VWS V13.01,2013-06-23 21:03:00,
2013-06-23 17:08:00,88.4,67.4,30.03,West,281,7.0,13.0,50,0.00,,---,0.00,VWS V13.01,2013-06-23 21:08:00,
2013-06-23 17:13:00,88.3,67.9,30.03,WSW,241,5.0,13.0,51,0.00,,---,0.00,VWS V13.01,2013-06-23 21:13:00,
2013-06-23 17:18:00,88.4,67.4,30.03,WSW,257,4.0,13.0,50,0.00,,---,0.00,VWS V13.01,2013-06-23 21:18:00,
2013-06-23 17:23:00,88.3,67.3,30.03,WNW,294,2.0,13.0,50,0.00,,---,0.00,VWS V13.01,2013-06-23 21:23:00,
2013-06-23 17:28:00,88.0,67.1,30.02,West,271,5.0,13.0,50,0.00,,---,0.00,VWS V13.01,2013-06-23 21:28:00,
2013-06-23 17:33:00,87.9,68.1,30.02,SW,229,7.0,7.0,52,0.00,,---,0.00,VWS V13.01,2013-06-23 21:33:00,
2013-06-23 17:38:00,88.1,69.9,30.02,SW,224,6.0,10.0,55,0.00,,---,0.00,VWS V13.01,2013-06-23 21:38:00,
2013-06-23 17:43:00,88.2,68.4,30.02,WSW,245,4.0,10.0,52,0.00,,---,0.00,VWS V13.01,2013-06-23 21:43:00,
2013-06-23 17:48:00,88.2,67.8,30.02,SW,219,4.0,10.0,51,0.00,,---,0.00,VWS V13.01,2013-06-23 21:48:00,
2013-06-23 17:53:00,88.2,68.9,30.02,NW,321,2.0,10.0,53,0.00,,---,0.00,VWS V13.01,2013-06-23 21:53:00,
2013-06-23 17:58:00,88.2,68.9,30.02,WSW,248,7.0,10.0,53,0.00,,---,0.00,VWS V13.01,2013-06-23 21:58:00,
2013-06-23 18:03:00,87.8,68.0,30.02,West,272,4.0,10.0,52,0.00,,---,0.00,VWS V13.01,2013-06-23 22:03:00,
2013-06-23 18:08:00,87.4,65.3,30.01,WSW,244,2.0,10.0,48,0.00,,---,0.00,VWS V13.01,2013-06-23 22:08:00,
2013-06-23 18:13:00,87.2,65.7,30.01,SW,215,4.0,10.0,49,0.00,,---,0.00,VWS V13.01,2013-06-23 22:13:00,
2013-06-23 18:18:00,87.1,65.6,30.01,WSW,237,4.0,10.0,49,0.00,,---,0.00,VWS V13.01,2013-06-23 22:18:00,
2013-06-23 18:23:00,87.2,66.3,30.01,WSW,246,6.0,10.0,50,0.00,,---,0.00,VWS V13.01,2013-06-23 22:23:00,
2013-06-23 18:28:00,87.2,66.3,30.01,SW,234,4.0,11.0,50,0.00,,---,0.00,VWS V13.01,2013-06-23 22:28:00,
2013-06-23 18:33:00,87.1,67.4,30.01,WSW,247,4.0,10.0,52,0.00,,---,0.00,VWS V13.01,2013-06-23 22:33:00,
2013-06-23 18:38:00,87.1,66.8,30.01,SW,232,6.0,10.0,51,0.00,,---,0.00,VWS V13.01,2013-06-23 22:38:00,
2013-06-23 18:43:00,87.2,68.0,30.01,West,269,5.0,10.0,53,0.00,,---,0.00,VWS V13.01,2013-06-23 22:43:00,
2013-06-23 18:48:00,87.0,67.3,30.01,WNW,303,5.0,10.0,52,0.00,,---,0.00,VWS V13.01,2013-06-23 22:48:00,
2013-06-23 18:53:00,86.7,68.1,30.01,West,267,7.0,10.0,54,0.00,,---,0.00,VWS V13.01,2013-06-23 22:53:00,
2013-06-23 18:58:00,86.6,67.4,30.01,SSW,213,4.0,10.0,53,0.00,,---,0.00,VWS V13.01,2013-06-23 22:58:00,
2013-06-23 19:03:00,86.4,67.3,30.01,WSW,240,2.0,9.0,53,0.00,,---,0.00,VWS V13.01,2013-06-23 23:03:00,
2013-06-23 19:08:00,86.1,67.5,30.01,West,268,3.0,9.0,54,0.00,,---,0.00,VWS V13.01,2013-06-23 23:08:00,
2013-06-23 19:13:00,85.9,67.3,30.01,WSW,256,8.0,9.0,54,0.00,,---,0.00,VWS V13.01,2013-06-23 23:13:00,
2013-06-23 19:18:00,85.7,66.6,30.01,West,267,2.0,10.0,53,0.00,,---,0.00,VWS V13.01,2013-06-23 23:18:00,
2013-06-23 19:23:00,85.6,67.1,30.01,SW,228,2.0,11.0,54,0.00,,---,0.00,VWS V13.01,2013-06-23 23:23:00,
2013-06-23 19:28:00,85.4,66.9,30.01,WSW,247,3.0,11.0,54,0.00,,---,0.00,VWS V13.01,2013-06-23 23:28:00,
2013-06-23 19:33:00,85.4,66.9,30.02,SW,222,3.0,6.0,54,0.00,,---,0.00,VWS V13.01,2013-06-23 23:33:00,
2013-06-23 19:38:00,85.3,66.8,30.02,SSW,206,5.0,7.0,54,0.00,,---,0.00,VWS V13.01,2013-06-23 23:38:00,
2013-06-23 19:43:00,85.2,66.7,30.02,West,259,3.0,7.0,54,0.00,,---,0.00,VWS V13.01,2013-06-23 23:43:00,
2013-06-23 19:48:00,85.0,66.5,30.02,SW,236,2.0,8.0,54,0.00,,---,0.00,VWS V13.01,2013-06-23 23:48:00,
2013-06-23 19:53:00,84.9,66.9,30.02,SW,229,2.0,8.0,55,0.00,,---,0.00,VWS V13.01,2013-06-23 23:53:00,
2013-06-23 19:58:00,84.8,66.8,30.02,West,266,2.0,8.0,55,0.00,,---,0.00,VWS V13.01,2013-06-23 23:58:00,
2013-06-23 20:03:00,84.8,67.4,30.02,West,267,0.0,2.0,56,0.00,,---,0.00,VWS V13.01,2013-06-24 00:03:00,
2013-06-23 20:08:00,84.8,66.8,30.02,West,266,3.0,3.0,55,0.00,,---,0.00,VWS V13.01,2013-06-24 00:08:00,
2013-06-23 20:13:00,84.4,67.0,30.02,West,272,1.0,4.0,56,0.00,,---,0.00,VWS V13.01,2013-06-24 00:13:00,
2013-06-23 20:18:00,83.9,67.1,30.02,SW,223,1.0,4.0,57,0.00,,---,0.00,VWS V13.01,2013-06-24 00:18:00,
2013-06-23 20:23:00,83.5,67.2,30.03,West,263,2.0,4.0,58,0.00,,---,0.00,VWS V13.01,2013-06-24 00:23:00,
2013-06-23 20:28:00,83.1,66.8,30.03,West,263,2.0,4.0,58,0.00,,---,0.00,VWS V13.01,2013-06-24 00:28:00,
2013-06-23 20:33:00,82.7,66.9,30.03,West,263,0.0,1.0,59,0.00,,---,0.00,VWS V13.01,2013-06-24 00:33:00,
2013-06-23 20:38:00,82.4,66.7,30.03,West,263,0.0,1.0,59,0.00,,---,0.00,VWS V13.01,2013-06-24 00:38:00,
2013-06-23 20:43:00,82.1,66.4,30.03,West,263,0.0,1.0,59,0.00,,---,0.00,VWS V13.01,2013-06-24 00:43:00,
2013-06-23 20:48:00,81.8,67.1,30.02,West,263,0.0,1.0,61,0.00,,---,0.00,VWS V13.01,2013-06-24 00:48:00,
2013-06-23 20:53:00,81.3,67.1,30.03,West,263,0.0,1.0,62,0.00,,---,0.00,VWS V13.01,2013-06-24 00:53:00,
2013-06-23 20:58:00,80.9,67.1,30.03,West,263,0.0,1.0,63,0.00,,---,0.00,VWS V13.01,2013-06-24 00:58:00,
2013-06-23 21:03:00,80.4,67.1,30.03,West,263,0.0,0.0,64,0.00,,---,0.00,VWS V13.01,2013-06-24 01:03:00,
2013-06-23 21:08:00,79.9,67.1,30.03,West,263,0.0,0.0,65,0.00,,---,0.00,VWS V13.01,2013-06-24 01:08:00,
2013-06-23 21:13:00,79.5,67.2,30.03,West,263,0.0,0.0,66,0.00,,---,0.00,VWS V13.01,2013-06-24 01:13:00,
2013-06-23 21:18:00,79.1,66.8,30.03,West,263,0.0,0.0,66,0.00,,---,0.00,VWS V13.01,2013-06-24 01:18:00,
2013-06-23 21:23:00,78.6,67.2,30.04,West,263,0.0,1.0,68,0.00,,---,0.00,VWS V13.01,2013-06-24 01:23:00,
2013-06-23 21:28:00,78.2,67.2,30.04,West,263,0.0,1.0,69,0.00,,---,0.00,VWS V13.01,2013-06-24 01:28:00,
2013-06-23 21:33:00,77.8,67.2,30.04,West,263,1.0,1.0,70,0.00,,---,0.00,VWS V13.01,2013-06-24 01:33:00,
2013-06-23 21:38:00,77.4,67.7,30.04,West,263,0.0,2.0,72,0.00,,---,0.00,VWS V13.01,2013-06-24 01:38:00,
2013-06-23 21:43:00,77.1,67.8,30.04,West,263,1.0,2.0,73,0.00,,---,0.00,VWS V13.01,2013-06-24 01:43:00,
2013-06-23 21:48:00,76.9,68.0,30.05,West,263,1.0,2.0,74,0.00,,---,0.00,VWS V13.01,2013-06-24 01:48:00,
2013-06-23 21:53:00,76.7,67.8,30.05,West,263,0.0,2.0,74,0.00,,---,0.00,VWS V13.01,2013-06-24 01:53:00,
2013-06-23 21:59:00,76.4,67.9,30.05,West,263,0.0,2.0,75,0.00,,---,0.00,VWS V13.01,2013-06-24 01:59:00,
2013-06-23 22:04:00,76.2,68.1,30.05,West,263,0.0,0.0,76,0.00,,---,0.00,VWS V13.01,2013-06-24 02:04:00,
2013-06-23 22:09:00,75.8,67.7,30.06,West,263,0.0,0.0,76,0.00,,---,0.00,VWS V13.01,2013-06-24 02:09:00,
2013-06-23 22:14:00,75.5,67.8,30.05,West,263,0.0,1.0,77,0.00,,---,0.00,VWS V13.01,2013-06-24 02:14:00,
2013-06-23 22:19:00,75.2,67.5,30.06,West,263,1.0,1.0,77,0.00,,---,0.00,VWS V13.01,2013-06-24 02:19:00,
2013-06-23 22:24:00,74.9,67.6,30.06,West,263,0.0,1.0,78,0.00,,---,0.00,VWS V13.01,2013-06-24 02:24:00,
2013-06-23 22:29:00,74.6,67.7,30.06,West,263,0.0,1.0,79,0.00,,---,0.00,VWS V13.01,2013-06-24 02:29:00,
2013-06-23 22:34:00,74.4,67.5,30.06,West,263,0.0,1.0,79,0.00,,---,0.00,VWS V13.01,2013-06-24 02:34:00,
2013-06-23 22:39:00,74.2,67.6,30.06,West,263,1.0,2.0,80,0.00,,---,0.00,VWS V13.01,2013-06-24 02:39:00,
2013-06-23 22:44:00,74.0,67.4,30.06,West,263,0.0,2.0,80,0.00,,---,0.00,VWS V13.01,2013-06-24 02:44:00,
2013-06-23 22:49:00,73.9,67.7,30.06,West,263,0.0,2.0,81,0.00,,---,0.00,VWS V13.01,2013-06-24 02:49:00,
2013-06-23 22:54:00,73.7,67.5,30.07,West,263,1.0,2.0,81,0.00,,---,0.00,VWS V13.01,2013-06-24 02:54:00,
2013-06-23 22:59:00,73.5,67.3,30.07,West,263,0.0,2.0,81,0.00,,---,0.00,VWS V13.01,2013-06-24 02:59:00,
2013-06-23 23:04:00,73.4,67.2,30.07,West,263,0.0,1.0,81,0.00,,---,0.00,VWS V13.01,2013-06-24 03:04:00,
2013-06-23 23:09:00,73.3,67.1,30.07,West,263,0.0,1.0,81,0.00,,---,0.00,VWS V13.01,2013-06-24 03:09:00,
2013-06-23 23:14:00,73.1,66.9,30.07,West,263,0.0,1.0,81,0.00,,---,0.00,VWS V13.01,2013-06-24 03:14:00,
2013-06-23 23:19:00,73.0,66.8,30.07,West,263,0.0,1.0,81,0.00,,---,0.00,VWS V13.01,2013-06-24 03:19:00,
2013-06-23 23:24:00,72.9,66.7,30.07,West,263,0.0,1.0,81,0.00,,---,0.00,VWS V13.01,2013-06-24 03:24:00,
2013-06-23 23:29:00,72.7,66.9,30.07,West,263,0.0,2.0,82,0.00,,---,0.00,VWS V13.01,2013-06-24 03:29:00,
2013-06-23 23:34:00,72.6,67.2,30.07,West,263,0.0,1.0,83,0.00,,---,0.00,VWS V13.01,2013-06-24 03:34:00,
2013-06-23 23:39:00,72.4,66.9,30.07,West,263,0.0,1.0,83,0.00,,---,0.00,VWS V13.01,2013-06-24 03:39:00,
2013-06-23 23:44:00,72.3,66.8,30.08,West,263,0.0,1.0,83,0.00,,---,0.00,VWS V13.01,2013-06-24 03:44:00,
2013-06-23 23:49:00,72.1,66.7,30.08,West,263,0.0,1.0,83,0.00,,---,0.00,VWS V13.01,2013-06-24 03:49:00,
2013-06-23 23:54:00,71.9,66.5,30.08,West,263,0.0,1.0,83,0.00,,---,0.00,VWS V13.01,2013-06-24 03:54:00,
2013-06-23 23:59:00,71.8,66.4,30.08,West,263,0.0,1.0,83,0.00,,---,0.00,VWS V13.01,2013-06-24 03:59:00,